TimeEST,TemperatureF,Dew PointF,Humidity,Sea Level PressureIn,VisibilityMPH,Wind Direction,Wind SpeedMPH,Gust SpeedMPH,PrecipitationIn,Events,Conditions,WindDirDegrees,DateUTC
12:15 AM,10.4,8.6,92,30.12,10.0,WNW,9.2,-,N/A,,Clear,300,2013-12-25 05:15:00
12:35 AM,10.4,6.8,85,30.12,10.0,WNW,9.2,-,N/A,,Clear,290,2013-12-25 05:35:00
12:55 AM,10.4,6.8,85,30.12,10.0,NW,8.1,-,N/A,,Clear,310,2013-12-25 05:55:00
1:15 AM,8.6,6.8,92,30.13,10.0,NW,6.9,-,N/A,,Clear,310,2013-12-25 06:15:00
1:35 AM,8.6,6.8,92,30.14,10.0,WNW,11.5,16.1,N/A,,Clear,290,2013-12-25 06:35:00
1:55 AM,8.6,6.8,92,30.15,10.0,WNW,5.8,-,N/A,,Clear,290,2013-12-25 06:55:00
2:15 AM,8.6,6.8,92,30.16,10.0,NW,6.9,-,N/A,,Clear,310,2013-12-25 07:15:00
2:35 AM,8.6,5.0,85,30.16,10.0,NW,5.8,-,N/A,,Clear,310,2013-12-25 07:35:00
2:55 AM,8.6,5.0,85,30.16,10.0,WNW,10.4,16.1,N/A,,Mostly Cloudy,300,2013-12-25 07:55:00
3:15 AM,8.6,5.0,85,30.17,10.0,WNW,10.4,17.3,N/A,,Mostly Cloudy,300,2013-12-25 08:15:00
3:35 AM,8.6,5.0,85,30.17,10.0,WNW,9.2,-,N/A,,Scattered Clouds,300,2013-12-25 08:35:00
3:55 AM,8.6,5.0,85,30.17,10.0,WNW,10.4,17.3,N/A,,Clear,290,2013-12-25 08:55:00
4:15 AM,8.6,5.0,85,30.19,10.0,WNW,5.8,-,N/A,,Partly Cloudy,290,2013-12-25 09:15:00
4:35 AM,8.6,5.0,85,30.19,10.0,NW,10.4,-,N/A,,Clear,310,2013-12-25 09:35:00
4:55 AM,8.6,5.0,85,30.20,10.0,NW,10.4,17.3,N/A,,Scattered Clouds,310,2013-12-25 09:55:00
5:15 AM,8.6,5.0,85,30.21,10.0,NW,10.4,16.1,N/A,,Partly Cloudy,310,2013-12-25 10:15:00
5:35 AM,8.6,5.0,85,30.23,10.0,WNW,9.2,18.4,N/A,,Partly Cloudy,300,2013-12-25 10:35:00
5:55 AM,8.6,5.0,85,30.23,10.0,WNW,10.4,21.9,N/A,,Clear,300,2013-12-25 10:55:00
6:15 AM,6.8,3.2,85,30.25,10.0,NW,9.2,-,N/A,,Clear,320,2013-12-25 11:15:00
6:35 AM,6.8,3.2,85,30.27,10.0,WNW,8.1,-,N/A,,Partly Cloudy,300,2013-12-25 11:35:00
6:55 AM,6.8,5.0,92,30.28,10.0,WNW,9.2,-,N/A,,Partly Cloudy,300,2013-12-25 11:55:00
7:15 AM,6.8,5.0,92,30.30,10.0,NW,6.9,-,N/A,,Scattered Clouds,310,2013-12-25 12:15:00
7:35 AM,8.6,5.0,85,30.31,10.0,NNW,6.9,-,N/A,,Partly Cloudy,330,2013-12-25 12:35:00
7:55 AM,8.6,6.8,92,30.32,10.0,NNW,5.8,-,N/A,,Clear,330,2013-12-25 12:55:00
8:15 AM,10.4,6.8,85,30.33,10.0,NNW,5.8,-,N/A,,Clear,330,2013-12-25 13:15:00
8:35 AM,10.4,6.8,85,30.35,10.0,NNW,6.9,-,N/A,,Clear,330,2013-12-25 13:35:00
8:55 AM,12.2,8.6,85,30.36,10.0,NNW,9.2,-,N/A,,Clear,330,2013-12-25 13:55:00
9:15 AM,12.2,8.6,85,30.37,10.0,NNW,5.8,-,N/A,,Clear,330,2013-12-25 14:15:00
9:35 AM,14.0,8.6,79,30.38,10.0,North,9.2,17.3,N/A,,Clear,360,2013-12-25 14:35:00
9:55 AM,15.8,8.6,73,30.38,10.0,North,13.8,19.6,N/A,,Clear,360,2013-12-25 14:55:00
10:15 AM,15.8,8.6,73,30.39,10.0,North,11.5,19.6,N/A,,Clear,360,2013-12-25 15:15:00
10:35 AM,15.8,10.4,79,30.39,10.0,North,12.7,19.6,N/A,,Clear,360,2013-12-25 15:35:00
10:55 AM,15.8,10.4,79,30.40,10.0,North,8.1,20.7,N/A,,Clear,360,2013-12-25 15:55:00
11:15 AM,17.6,10.4,73,30.39,10.0,North,13.8,20.7,N/A,,Partly Cloudy,360,2013-12-25 16:15:00
11:35 AM,17.6,10.4,73,30.40,10.0,North,9.2,17.3,N/A,,Scattered Clouds,360,2013-12-25 16:35:00
11:55 AM,17.6,12.2,79,30.41,10.0,NNW,8.1,-,N/A,,Mostly Cloudy,340,2013-12-25 16:55:00
12:15 PM,19.4,12.2,74,30.41,10.0,NNW,10.4,-,N/A,,Mostly Cloudy,330,2013-12-25 17:15:00
12:35 PM,19.4,12.2,74,30.42,10.0,North,10.4,16.1,N/A,,Mostly Cloudy,360,2013-12-25 17:35:00
12:55 PM,19.4,12.2,74,30.42,10.0,NNW,9.2,17.3,N/A,,Mostly Cloudy,330,2013-12-25 17:55:00
1:15 PM,19.4,12.2,74,30.43,10.0,North,9.2,-,N/A,,Overcast,360,2013-12-25 18:15:00
1:35 PM,17.6,12.2,79,30.44,10.0,North,9.2,-,N/A,,Mostly Cloudy,360,2013-12-25 18:35:00
1:55 PM,17.6,12.2,79,30.42,10.0,North,12.7,20.7,N/A,,Mostly Cloudy,360,2013-12-25 18:55:00
2:15 PM,19.4,12.2,74,30.43,10.0,North,9.2,-,N/A,,Partly Cloudy,360,2013-12-25 19:15:00
2:35 PM,19.4,12.2,74,30.44,10.0,North,8.1,-,N/A,,Partly Cloudy,360,2013-12-25 19:35:00
2:55 PM,17.6,12.2,79,30.43,10.0,North,8.1,-,N/A,,Clear,360,2013-12-25 19:55:00
3:15 PM,17.6,12.2,79,30.45,10.0,NNW,3.5,-,N/A,,Clear,340,2013-12-25 20:15:00
3:35 PM,17.6,12.2,79,30.47,10.0,NW,3.5,-,N/A,,Clear,320,2013-12-25 20:35:00
3:55 PM,15.8,10.4,79,30.48,10.0,WNW,3.5,-,N/A,,Clear,300,2013-12-25 20:55:00
4:15 PM,14.0,10.4,86,30.49,10.0,Calm,Calm,-,N/A,,Clear,0,2013-12-25 21:15:00
4:35 PM,12.2,8.6,85,30.49,10.0,Calm,Calm,-,N/A,,Clear,0,2013-12-25 21:35:00
4:55 PM,12.2,10.4,92,30.51,10.0,WNW,3.5,-,N/A,,Clear,290,2013-12-25 21:55:00
5:15 PM,12.2,8.6,85,30.52,10.0,WNW,3.5,-,N/A,,Clear,290,2013-12-25 22:15:00
5:35 PM,10.4,8.6,92,30.52,9.0,Calm,Calm,-,N/A,,Clear,0,2013-12-25 22:35:00
5:55 PM,8.6,6.8,92,30.52,10.0,Calm,Calm,-,N/A,,Clear,0,2013-12-25 22:55:00
6:15 PM,8.6,8.6,100,30.53,10.0,Calm,Calm,-,N/A,,Clear,0,2013-12-25 23:15:00
6:35 PM,8.6,6.8,92,30.54,9.0,Calm,Calm,-,N/A,,Clear,0,2013-12-25 23:35:00
6:55 PM,8.6,6.8,92,30.54,10.0,North,3.5,-,N/A,,Clear,10,2013-12-25 23:55:00
7:15 PM,8.6,6.8,92,30.55,9.0,Calm,Calm,-,N/A,,Clear,0,2013-12-26 00:15:00
7:35 PM,8.6,6.8,92,30.55,10.0,Calm,Calm,-,N/A,,Clear,0,2013-12-26 00:35:00
7:55 PM,8.6,6.8,92,30.55,10.0,NW,3.5,-,N/A,,Clear,310,2013-12-26 00:55:00
8:15 PM,8.6,6.8,92,30.55,10.0,Calm,Calm,-,N/A,,Clear,0,2013-12-26 01:15:00
8:35 PM,8.6,6.8,92,30.54,10.0,Calm,Calm,-,N/A,,Clear,0,2013-12-26 01:35:00
8:55 PM,8.6,6.8,92,30.54,9.0,Calm,Calm,-,N/A,,Clear,0,2013-12-26 01:55:00
9:15 PM,6.8,5.0,92,30.54,10.0,Calm,Calm,-,N/A,,Clear,0,2013-12-26 02:15:00
9:35 PM,6.8,6.8,100,30.55,10.0,Calm,Calm,-,N/A,,Clear,0,2013-12-26 02:35:00
9:55 PM,6.8,5.0,92,30.55,10.0,Calm,Calm,-,N/A,,Clear,0,2013-12-26 02:55:00
10:15 PM,6.8,3.2,85,30.55,8.0,Calm,Calm,-,N/A,,Clear,0,2013-12-26 03:15:00
10:35 PM,5.0,3.2,92,30.55,5.0,Calm,Calm,-,N/A,,Clear,0,2013-12-26 03:35:00
10:55 PM,5.0,3.2,92,30.56,10.0,Calm,Calm,-,N/A,,Clear,0,2013-12-26 03:55:00
11:15 PM,3.2,1.4,92,30.55,9.0,Calm,Calm,-,N/A,,Clear,0,2013-12-26 04:15:00
11:35 PM,3.2,1.4,92,30.55,10.0,Calm,Calm,-,N/A,,Scattered Clouds,0,2013-12-26 04:35:00
11:55 PM,3.2,1.4,92,30.54,10.0,Calm,Calm,-,N/A,,Mostly Cloudy,0,2013-12-26 04:55:00